Regional Weather Roundup
Issued by NWS

Home | Current Version | Previous Version | Graphics & Text | Print | Product List | Glossary On
Versions: 1 2 3 4 5 6 7 8 9 10 11 12 13 14 15 16 17 18 19 20 21 22 23 24 25 26 27 28 29 30 31 32 33 34 35 36 37 38 39 40 41 42 43 44 45 46 47 48 49 50
000
ASUS43 KFSD 210710
RWRSD

WEATHER ROUNDUP FOR SOUTH DAKOTA
NATIONAL WEATHER SERVICE SIOUX FALLS SD
100 AM CST SAT JAN 21 2017

NOTE: "FAIR" INDICATES FEW OR NO CLOUDS BELOW 12,000 FEET WITH NO
SIGNIFICANT WEATHER AND/OR OBSTRUCTIONS TO VISIBILITY.


SDZ001>005-009-010-012>017-210800-
NORTHWEST AND NORTH CENTRAL SOUTH DAKOTA

CITY           SKY/WX    TMP DP  RH WIND       PRES   REMARKS
BUFFALO          N/A     35  32  88 W17       29.26F WCI  25
FAITH            N/A     26  24  92 NW8       29.30S WCI  18
MOBRIDGE       FOG       24  20  84 SE7       29.29S VSB 1/2 WCI  16
$$

SDZ012>016-024>037-041>051-057-063-072>074-210800-
SOUTHWEST AND SOUTH CENTRAL SOUTH DAKOTA

CITY           SKY/WX    TMP DP  RH WIND       PRES   REMARKS
RAPID CTY ARPT CLOUDY    34  31  88 N18       29.35S WCI  23
PIERRE         CLOUDY    25  23  92 W10       29.33S FOG     WCI  15
CUSTER         CLOUDY    28  25  88 W7        29.32F WCI  21
ELLSWORTH AFB  PTCLDY    32  32 100 N14       29.34  WCI  22
PHILIP         PTCLDY    23  22  96 W7        29.33F WCI  15
PINE RIDGE     CLOUDY    33  32  96 SW6       29.37S WCI  28
WINNER         CLOUDY    30  27  88 NW10      29.34S WCI  21
$$

SDZ004>011-016>023-039-040-210800-
NORTHEAST SOUTH DAKOTA

CITY           SKY/WX    TMP DP  RH WIND       PRES   REMARKS
ABERDEEN       CLOUDY    30  28  92 N3        29.35F FOG
WATERTOWN      FOG       34  34 100 SE10      29.36F VSB 1/4 WCI  26
BROOKINGS      LGT RAIN  35  34  96 SE9       29.37F VSB 1/2 WCI  28
SISSETON         N/A     34  34 100 SE9       29.39F WCI  27
$$

SDZ017-020-022-023-036>040-048>070-210800-
SOUTHEAST SOUTH DAKOTA

CITY           SKY/WX    TMP DP  RH WIND       PRES   REMARKS
SIOUX FALLS    LGT RAIN  37  37 100 SE8       29.37F FOG
HURON          FOG       37  37 100 S10       29.34S VSB 1
CHAMBERLAIN    MOCLDY    26  24  95 W6        29.35S WCI  19
MITCHELL       CLOUDY    38  38 100 SE9       29.35F FOG
YANKTON        CLOUDY    37  36  93 SE8       29.36F
$$

ABBREVIATIONS USED IN REMARKS
   TC - TEMPERATURE IN CELSIUS
  WCI - WIND CHILL INDEX
   HX - HEAT INDEX
  VSB - VISIBILITY




USA.gov is the U.S. government's official web portal to all federal, state and local government web resources and services.